Last 24 Hours

Thomas Mountain

10 Minute Data | America/Los_Angeles
as of 5/4/26 6:09 AM PDT
Date & Time Temp (°F) Dew Pt (°F) RH (%) Wind Spd (mph) Wind Dir (°) Wind Gust (mph) Wind Gst Dir (°) Daily Max Temp (°F) Daily Min Temp (°F)
5/4/26 - 0600 38.2 37.4 97 10.8 W | 276 22.2 W | 278 40.4 38.0
5/4/26 - 0550 38.1 37.5 98 9.5 W | 272 16.7 W | 276 40.4 38.0
5/4/26 - 0540 38.0 37.3 97 9.7 W | 270 17.8 W | 275 40.4 38.0
5/4/26 - 0530 38.0 37.2 97 13.3 W | 275 21.0 W | 278 40.4 38.0
5/4/26 - 0520 38.2 37.4 97 11.0 W | 273 18.1 W | 279 40.4 38.0
5/4/26 - 0510 38.3 37.4 96 10.3 W | 273 19.7 W | 272 40.4 38.1
5/4/26 - 0500 38.3 37.0 95 9.0 W | 275 14.6 W | 275 40.4 38.2
5/4/26 - 0450 38.3 36.8 94 10.3 W | 279 15.4 WNW | 291 40.4 38.2
5/4/26 - 0440 38.5 36.5 92 10.2 W | 277 17.0 W | 260 40.4 38.4
5/4/26 - 0430 38.5 36.1 91 10.6 W | 280 18.3 WNW | 286 40.4 38.4
5/4/26 - 0420 38.4 36.2 92 9.4 W | 279 15.5 W | 268 40.4 38.4
5/4/26 - 0410 38.4 36.2 91 11.3 W | 281 17.6 WSW | 254 40.4 38.4
5/4/26 - 0400 38.6 35.6 89 12.4 W | 276 19.1 W | 268 40.4 38.5
5/4/26 - 0350 38.9 35.5 87 10.0 W | 277 17.8 W | 276 40.4 38.8
5/4/26 - 0340 39.2 35.7 87 7.7 WNW | 283 14.9 WSW | 255 40.4 39.0
5/4/26 - 0330 39.4 35.9 87 7.6 W | 274 15.8 WNW | 285 40.4 39.0
5/4/26 - 0320 39.5 36.1 87 8.5 W | 279 16.0 W | 275 40.4 39.0
5/4/26 - 0310 39.6 36.4 88 8.3 W | 270 16.4 WSW | 252 40.4 39.0
5/4/26 - 0300 39.6 36.4 88 9.0 WNW | 285 15.3 W | 263 40.4 39.0
5/4/26 - 0250 39.6 36.6 89 9.0 W | 274 15.4 WSW | 254 40.4 39.0
5/4/26 - 0240 39.8 36.5 88 10.8 WNW | 284 19.6 W | 270 40.4 39.0
5/4/26 - 0230 39.9 36.5 87 9.2 W | 272 18.0 W | 266 40.4 39.0
5/4/26 - 0220 39.8 36.5 88 7.6 WNW | 301 13.6 WNW | 293 40.4 39.0
5/4/26 - 0210 39.7 37.0 90 9.3 WNW | 284 17.2 WNW | 282 40.4 39.0
5/4/26 - 0200 40.0 36.9 89 10.1 WNW | 288 20.2 WNW | 289 40.4 39.0
5/4/26 - 0150 40.2 36.6 87 13.2 WNW | 284 21.8 W | 275 40.4 39.0
5/4/26 - 0140 39.9 36.6 88 10.3 WNW | 284 20.0 W | 273 40.1 39.0
5/4/26 - 0130 39.5 37.2 91 12.1 WNW | 283 21.3 WNW | 282 39.7 39.0
5/4/26 - 0120 39.0 37.3 94 11.3 WNW | 284 22.0 WNW | 282 39.3 39.0
5/4/26 - 0110 39.1 37.4 93 14.9 W | 274 23.5 W | 269 39.2 39.0
5/4/26 - 0100 39.1 37.1 92 13.8 W | 276 23.1 WSW | 242 65.9 38.5
5/4/26 - 0050 39.0 36.6 91 10.6 WNW | 286 19.4 WNW | 283 65.9 38.5
5/4/26 - 0040 38.9 36.4 90 12.6 W | 279 20.5 W | 267 65.9 38.5
5/4/26 - 0030 38.8 36.7 92 12.7 W | 270 22.5 WNW | 296 65.9 38.5
5/4/26 - 0020 38.8 36.8 92 15.0 WSW | 250 28.0 WSW | 239 65.9 38.5
5/4/26 - 0010 38.7 37.3 95 11.7 W | 259 20.8 W | 259 65.9 38.5
5/4/26 - 0000 38.8 37.7 96 9.8 W | 268 16.7 WNW | 284 65.9 38.6
5/3/26 - 2350 38.7 37.8 97 12.6 WSW | 257 22.1 W | 269 65.9 38.6
5/3/26 - 2340 38.9 38.4 98 11.5 WSW | 253 21.9 WSW | 258 65.9 38.8
5/3/26 - 2330 38.9 38.7 99 7.5 W | 277 14.0 W | 271 65.9 38.8
5/3/26 - 2320 38.9 38.8 100 7.8 W | 273 14.5 W | 277 65.9 38.8
5/3/26 - 2310 38.9 38.9 100 8.7 W | 268 17.0 WNW | 298 65.9 38.8
5/3/26 - 2300 39.2 39.2 100 9.0 W | 270 16.0 W | 266 65.9 39.1
5/3/26 - 2250 39.4 39.4 100 9.0 W | 269 15.9 WSW | 252 65.9 39.3
5/3/26 - 2240 39.6 39.6 100 8.4 W | 273 15.7 W | 278 65.9 39.6
5/3/26 - 2230 39.7 39.6 100 8.4 W | 259 13.7 WSW | 250 65.9 39.7
5/3/26 - 2220 39.7 39.6 100 8.7 WSW | 255 13.8 WSW | 250 65.9 39.7
5/3/26 - 2210 39.8 39.7 100 7.9 W | 266 13.7 W | 270 65.9 39.7
5/3/26 - 2200 39.9 39.9 100 9.4 W | 274 16.2 W | 271 65.9 39.8
5/3/26 - 2150 40.2 40.2 100 9.1 W | 277 14.2 W | 263 65.9 40.0
5/3/26 - 2140 40.5 40.4 100 8.7 W | 269 15.6 W | 280 65.9 40.2
5/3/26 - 2130 40.6 40.6 100 10.1 WSW | 255 17.5 WSW | 254 65.9 40.5
5/3/26 - 2120 40.8 40.8 100 7.5 W | 259 14.3 WSW | 249 65.9 40.7
5/3/26 - 2110 40.8 40.8 100 7.9 WSW | 258 12.7 W | 276 65.9 40.7
5/3/26 - 2100 41.0 40.9 100 8.2 WSW | 258 14.3 W | 263 65.9 40.8
5/3/26 - 2050 41.0 41.0 100 9.6 WSW | 251 15.4 SW | 235 65.9 41.0
5/3/26 - 2040 41.2 41.2 100 9.5 WSW | 255 15.0 WSW | 258 65.9 41.1
5/3/26 - 2030 41.6 41.4 99 8.3 W | 272 13.4 W | 279 65.9 41.4
5/3/26 - 2020 41.8 41.5 99 8.2 W | 268 14.0 WNW | 282 65.9 41.7
5/3/26 - 2010 42.2 41.8 98 9.6 W | 278 15.2 NW | 305 65.9 41.9
5/3/26 - 2000 43.0 42.4 98 7.9 WNW | 283 14.6 WNW | 291 65.9 42.7
5/3/26 - 1950 43.2 42.5 97 10.6 W | 280 16.8 W | 268 65.9 43.1
5/3/26 - 1940 43.6 42.7 96 11.1 W | 271 17.5 WNW | 282 65.9 43.3
5/3/26 - 1930 44.3 43.0 95 12.4 WSW | 252 18.5 WSW | 254 65.9 44.0
5/3/26 - 1920 45.6 43.5 92 11.6 WSW | 245 18.9 WSW | 245 65.9 44.9
5/3/26 - 1910 47.0 44.0 89 7.7 W | 266 14.8 WSW | 247 65.9 46.3
5/3/26 - 1900 48.3 44.6 87 7.0 W | 268 12.2 WSW | 250 65.9 47.7
5/3/26 - 1850 48.6 44.6 86 8.7 W | 269 16.2 W | 276 65.9 48.5
5/3/26 - 1840 49.4 44.9 84 9.4 W | 267 17.1 WSW | 247 65.9 49.0
5/3/26 - 1830 50.5 44.7 80 11.7 WSW | 254 18.8 SW | 236 65.9 49.8
5/3/26 - 1820 51.5 44.8 78 8.9 W | 265 16.5 W | 276 65.9 51.2
5/3/26 - 1810 51.8 44.8 77 12.2 W | 274 19.7 W | 278 65.9 51.4
5/3/26 - 1800 53.0 45.0 74 11.5 WSW | 256 18.8 WSW | 245 65.9 52.7
5/3/26 - 1750 54.0 45.1 71 12.5 WSW | 249 21.3 W | 265 65.9 53.2
5/3/26 - 1740 54.1 45.1 71 13.8 WSW | 247 21.9 WSW | 252 65.9 53.6
5/3/26 - 1730 54.4 45.8 72 12.7 WSW | 248 19.5 WSW | 246 65.9 53.7
5/3/26 - 1720 54.7 46.4 73 12.6 WSW | 239 19.3 WSW | 237 65.9 53.7
5/3/26 - 1710 54.6 47.1 76 12.8 WSW | 238 19.1 SW | 225 65.9 53.7
5/3/26 - 1700 54.3 47.2 77 13.4 WSW | 238 19.1 SW | 233 65.9 53.7
5/3/26 - 1650 54.9 47.3 75 14.1 WSW | 239 20.8 WSW | 239 65.9 53.7
5/3/26 - 1640 54.7 47.0 75 13.4 WSW | 239 21.5 WSW | 245 65.9 53.7
5/3/26 - 1630 54.4 46.7 75 14.2 WSW | 245 22.6 WSW | 239 65.9 53.7
5/3/26 - 1620 54.3 46.1 74 14.4 WSW | 247 22.0 WSW | 239 65.9 53.7
5/3/26 - 1610 54.8 45.6 71 12.9 WSW | 241 21.3 SW | 236 65.9 54.2
5/3/26 - 1600 54.7 45.4 71 11.5 WSW | 246 19.9 W | 264 65.9 54.2
5/3/26 - 1550 55.2 45.5 70 13.4 WSW | 246 22.1 WSW | 240 65.9 54.2
5/3/26 - 1540 54.9 45.9 71 13.2 WSW | 242 20.1 W | 259 65.9 54.2
5/3/26 - 1530 55.0 46.0 72 13.6 WSW | 242 23.5 WSW | 245 65.9 54.2
5/3/26 - 1520 55.8 46.1 70 14.9 WSW | 252 22.1 SW | 234 65.9 54.9
5/3/26 - 1510 55.8 46.3 70 11.3 WSW | 249 19.4 WSW | 250 65.9 54.9
5/3/26 - 1500 56.0 46.3 70 12.5 WSW | 246 20.1 WSW | 241 65.9 55.5
5/3/26 - 1450 56.9 46.6 68 12.2 WSW | 245 18.6 SW | 236 65.9 55.6
5/3/26 - 1440 57.1 46.8 68 13.6 WSW | 249 21.0 WSW | 254 65.9 55.6
5/3/26 - 1430 56.8 47.0 69 15.8 WSW | 248 22.1 WSW | 254 65.9 55.6
5/3/26 - 1420 56.8 47.5 71 15.9 WSW | 244 25.1 SW | 226 65.9 55.6
5/3/26 - 1410 56.8 47.3 71 16.4 WSW | 247 25.4 WSW | 252 65.9 55.6
5/3/26 - 1400 57.9 46.3 65 17.4 WSW | 245 24.2 WSW | 246 65.9 57.0
5/3/26 - 1350 58.4 46.1 64 17.5 WSW | 242 25.9 SW | 231 65.9 57.7
5/3/26 - 1340 58.7 45.0 60 17.6 WSW | 247 23.4 WSW | 247 65.9 57.9
5/3/26 - 1330 59.9 46.3 61 16.1 WSW | 243 22.9 WSW | 246 65.9 58.4
5/3/26 - 1320 60.7 46.1 59 15.7 WSW | 244 23.6 WSW | 246 65.9 58.4
5/3/26 - 1310 60.0 43.6 55 18.2 WSW | 247 28.6 WSW | 242 65.9 58.4
5/3/26 - 1300 59.9 46.2 60 17.2 WSW | 250 27.1 WSW | 242 65.9 58.4
5/3/26 - 1250 60.5 45.7 58 16.5 WSW | 251 24.3 WSW | 249 65.9 58.4
5/3/26 - 1240 60.6 44.2 55 19.0 WSW | 248 26.2 WSW | 237 65.9 58.4
5/3/26 - 1230 60.8 43.0 52 18.6 WSW | 249 25.2 W | 259 65.9 58.4
5/3/26 - 1220 61.3 45.0 55 17.6 WSW | 245 25.4 WSW | 258 65.9 58.4
5/3/26 - 1210 62.3 42.7 49 17.2 WSW | 244 24.7 WSW | 253 65.9 58.4
5/3/26 - 1200 61.6 42.7 50 18.3 WSW | 247 25.4 WSW | 247 65.9 58.4
5/3/26 - 1150 63.3 39.7 42 18.1 WSW | 245 25.9 WSW | 245 65.9 58.4
5/3/26 - 1140 64.8 36.2 35 16.4 SW | 233 25.6 SW | 218 65.9 58.4
5/3/26 - 1130 65.0 39.0 38 14.7 SW | 234 25.2 SSW | 209 65.9 58.4
5/3/26 - 1120 64.9 38.5 38 14.3 SW | 234 22.1 WSW | 238 65.9 58.4
5/3/26 - 1110 64.4 39.8 40 14.3 SW | 231 21.8 SW | 220 65.5 58.4
5/3/26 - 1100 64.5 38.3 38 15.0 SW | 236 22.3 WSW | 242 65.5 58.4
5/3/26 - 1050 64.1 37.4 37 13.6 WSW | 241 23.7 WSW | 247 65.5 58.4
5/3/26 - 1040 64.7 37.4 36 12.2 SW | 232 21.7 SSW | 207 65.5 58.4
5/3/26 - 1030 62.8 36.8 38 11.9 SW | 228 18.7 SW | 225 64.4 58.4
5/3/26 - 1020 62.8 37.5 39 9.2 SW | 235 18.0 SW | 227 63.9 58.4
5/3/26 - 1010 62.0 34.4 35 6.5 SW | 220 13.4 SW | 235 63.4 58.4
5/3/26 - 1000 62.3 33.1 33 8.5 WSW | 246 15.1 WSW | 252 63.4 58.4
5/3/26 - 0950 62.4 33.3 34 8.0 SW | 216 11.9 S | 186 63.0 58.4
5/3/26 - 0940 61.9 32.1 32 7.6 SW | 225 14.5 WSW | 238 62.8 58.4
5/3/26 - 0930 62.2 30.9 31 9.7 SW | 220 15.1 SSW | 201 62.8 58.4
5/3/26 - 0920 62.0 29.3 29 9.3 SW | 230 15.3 SW | 227 62.8 58.4
5/3/26 - 0910 62.3 30.0 29 7.6 SW | 235 16.0 SW | 223 62.8 58.4
5/3/26 - 0900 62.0 29.6 29 7.8 SW | 228 12.1 WSW | 243 62.5 58.4
5/3/26 - 0850 61.9 29.7 29 5.2 WSW | 244 9.2 SSW | 197 62.4 58.4
5/3/26 - 0840 61.3 29.2 29 5.3 WSW | 242 7.9 SW | 227 62.0 58.4
5/3/26 - 0830 61.5 29.1 29 5.6 SSW | 212 10.9 SSW | 202 62.0 58.4
5/3/26 - 0820 61.4 29.2 29 4.2 SW | 220 9.4 SW | 215 62.0 58.4
5/3/26 - 0810 61.2 29.1 29 3.3 WSW | 254 5.9 W | 261 62.0 58.4
5/3/26 - 0800 61.1 29.0 30 3.1 WSW | 252 6.4 W | 262 62.0 58.4
5/3/26 - 0750 60.9 28.1 29 3.2 W | 277 6.2 W | 276 62.0 58.4
5/3/26 - 0740 60.3 27.4 28 1.1 S | 176 3.2 SSE | 168 62.0 58.4
5/3/26 - 0730 59.7 26.7 28 2.0 W | 266 4.3 W | 281 62.0 58.4
5/3/26 - 0720 60.0 26.8 28 3.0 WSW | 254 7.5 SW | 229 62.0 58.4
5/3/26 - 0710 60.2 27.0 28 3.2 WSW | 248 6.3 SW | 234 62.0 58.4
5/3/26 - 0700 59.9 26.3 27 1.6 WNW | 301 2.9 WNW | 288 62.0 58.4
5/3/26 - 0650 59.5 25.6 27 2.0 W | 260 3.4 W | 270 62.0 58.4
5/3/26 - 0640 59.1 25.8 28 3.6 WNW | 283 6.4 W | 266 62.0 58.4
5/3/26 - 0630 59.6 25.9 27 4.4 WNW | 298 6.9 WNW | 299 62.0 58.4
5/3/26 - 0620 59.8 25.4 27 3.3 NW | 316 5.1 NNW | 332 62.0 58.4
5/3/26 - 0610 59.7 25.1 26 2.9 WNW | 298 5.1 W | 267 62.0 58.4
5/3/26 - 0600 59.8 24.4 26 2.8 NW | 304 4.8 WNW | 299 62.0 58.4
Max 65.0 47.5 100 19.0 - 28.6 - 65.9 58.4
Avg 50.1 38.8 71 10.6 - 17.5 - - -
Min 38.0 24.4 26 1.1 - 2.9 - 39.2 38.0